[ hide orbit diagram ]
For accurate long-term ephemerides, please instead use our Horizons system.This orbit viewer was implemented using two-body methods, and hence should not be used for determining accurate long-term trajectories (over several years or decades) or planetary encounter circumstances.
Orbital Elements at Epoch 2459000.5 (2020-May-31.0) TDB
Reference: JPL 37 (heliocentric ecliptic J2000)
Element | Value | Uncertainty (1-sigma) | Units |
e | .2301737988182796 | 3.9334e-08 | |
a | 3.152387645408758 | 1.4822e-08 | au |
q | 2.426790605717213 | 1.2543e-07 | au |
i | 16.8974616499704 | 4.3889e-06 | deg |
node | 41.47368882838637 | 1.4252e-05 | deg |
peri | 328.3832681229565 | 1.6812e-05 | deg |
M | 298.5250882666289 | 1.1557e-05 | deg |
tp | 2459349.602746150833 (2021-May-15.10274615) | 6.7206e-05 | TDB |
period | 2044.362245844058 5.60 | 1.4418e-05 3.947e-08 | d yr |
n | .1760940365298941 | 1.2419e-09 | deg/d |
Q | 3.877984685100305 | 1.8233e-08 | au |
|
| | Orbit Determination Parameters
Additional Information
|
[ show covariance matrix ]
Physical Parameter Table
Parameter |
Symbol |
Value |
Units |
Sigma |
Reference |
Notes |
absolute magnitude |
H |
10.3 |
|
n/a |
MPO435710 |
|
diameter |
diameter |
29.188 |
km |
1.833 |
urn:nasa:pds:neowise_diameters_albedos::2.0[mainbelt] (http://adsabs.harvard.edu/abs/2012ApJ...759L...8M) |
|
rotation period |
rot_per |
4.678 |
h |
n/a |
LCDB (Rev. 2020-October); Warner et al., 2009 |
Published Reference List: [Almeida, R.; Angeli, C.A.; Duffard, R.; Lazzaro, D. (2004) Astron. Astrophys. 415, 403-406.] [Behrend, R. (2005) Observatoire de Geneve web site, http://obswww.unige.ch/~behrend/page_cou.html] [Delbo, M.; Gai, M.; Lattanzi, M.G.; Ligori, S.; et al. (2006) Icarus 181, 618-622.] [Licchelli, D. (2006) Minor Planet Bull. 33, 11-13.] [Silva, J.S.; Lzzaro, D. (2015) Astron. Astrophys. 580, A70.] [Durech, J.; Hanus, J.; Oszkiewsicz, D.; Vanco, R. (2016) Astron. Astrophys. 587, A48.] [Hanus, J.; Durech, J.; Oszkiewicz, D.A.; Behrend, R.; et al. (2016) Astron. Astrophys. 586, A108.] |
geometric albedo |
albedo |
0.909 |
|
0.224 |
urn:nasa:pds:neowise_diameters_albedos::2.0[mainbelt] (http://adsabs.harvard.edu/abs/2012ApJ...759L...8M) |
|
|
1459 Magnya (1937 VA) Discovered 1937-Nov-04 by Neujmin, G. at Simeis |
Independent discovery Nov. 6 by A. Patry, Nice, was announced first. |
Reference: DISCOVERY.DB | Last Updated: 2003-08-29 |
|
[ show close-approach data ]
|